Time,TemperatureF,DewpointF,PressureIn,WindDirection,WindDirectionDegrees,WindSpeedMPH,WindSpeedGustMPH,Humidity,HourlyPrecipIn,Conditions,Clouds,dailyrainin,SolarRadiationWatts/m^2,SoftwareType,DateUTC
2013-06-28 00:11:00,61.0,53.0,-100.00,NNW,329,0.0,2.0,74,0.00,,,0.00,3.000000,,2013-06-28 08:11:00,
2013-06-28 00:21:00,61.0,53.0,-100.00,NNW,329,0.0,2.0,74,0.00,,,0.00,3.000000,,2013-06-28 08:21:00,
2013-06-28 00:33:00,61.0,53.0,-100.00,NNW,329,0.0,2.0,74,0.00,,,0.00,3.000000,,2013-06-28 08:33:00,
2013-06-28 00:43:00,61.0,53.0,-100.00,NNW,329,0.0,2.0,74,0.00,,,0.00,3.000000,,2013-06-28 08:43:00,
2013-06-28 00:52:00,61.0,53.0,-100.00,NNW,329,0.0,2.0,74,0.00,,,0.00,3.000000,,2013-06-28 08:52:00,
2013-06-28 01:11:00,60.0,51.0,-100.00,North,5,0.0,2.0,72,0.00,,,0.00,0.000000,,2013-06-28 09:11:00,
2013-06-28 01:22:00,60.0,51.0,-100.00,North,5,0.0,2.0,72,0.00,,,0.00,0.000000,,2013-06-28 09:22:00,
2013-06-28 01:33:00,60.0,51.0,-100.00,North,5,0.0,2.0,72,0.00,,,0.00,0.000000,,2013-06-28 09:33:00,
2013-06-28 01:42:00,60.0,51.0,-100.00,North,5,0.0,2.0,72,0.00,,,0.00,0.000000,,2013-06-28 09:42:00,
2013-06-28 01:52:00,60.0,51.0,-100.00,North,5,0.0,2.0,72,0.00,,,0.00,0.000000,,2013-06-28 09:52:00,
2013-06-28 02:11:00,58.0,52.0,-100.00,NNE,28,0.0,3.0,80,0.00,,,0.00,0.000000,,2013-06-28 10:11:00,
2013-06-28 02:22:00,58.0,52.0,-100.00,NNE,28,0.0,3.0,80,0.00,,,0.00,0.000000,,2013-06-28 10:22:00,
2013-06-28 02:33:00,58.0,52.0,-100.00,NNE,28,0.0,3.0,80,0.00,,,0.00,0.000000,,2013-06-28 10:33:00,
2013-06-28 02:42:00,58.0,52.0,-100.00,NNE,28,0.0,3.0,80,0.00,,,0.00,0.000000,,2013-06-28 10:42:00,
2013-06-28 02:52:00,58.0,52.0,-100.00,NNE,28,0.0,3.0,80,0.00,,,0.00,0.000000,,2013-06-28 10:52:00,
2013-06-28 03:11:00,58.0,51.0,-100.00,East,81,0.0,0.0,78,0.00,,,0.00,0.000000,,2013-06-28 11:11:00,
2013-06-28 03:22:00,58.0,51.0,-100.00,East,81,0.0,0.0,78,0.00,,,0.00,0.000000,,2013-06-28 11:22:00,
2013-06-28 03:34:00,58.0,51.0,-100.00,East,81,0.0,0.0,78,0.00,,,0.00,0.000000,,2013-06-28 11:34:00,
2013-06-28 03:42:00,58.0,51.0,-100.00,East,81,0.0,0.0,78,0.00,,,0.00,0.000000,,2013-06-28 11:42:00,
2013-06-28 03:53:00,58.0,51.0,-100.00,East,81,0.0,0.0,78,0.00,,,0.00,0.000000,,2013-06-28 11:53:00,
2013-06-28 04:12:00,57.0,51.0,-100.00,ESE,117,0.0,0.0,81,0.00,,,0.00,0.000000,,2013-06-28 12:12:00,
2013-06-28 04:22:00,57.0,51.0,-100.00,ESE,117,0.0,0.0,81,0.00,,,0.00,0.000000,,2013-06-28 12:22:00,
2013-06-28 04:33:00,57.0,51.0,-100.00,ESE,117,0.0,0.0,81,0.00,,,0.00,0.000000,,2013-06-28 12:33:00,
2013-06-28 04:43:00,57.0,51.0,-100.00,ESE,117,0.0,0.0,81,0.00,,,0.00,0.000000,,2013-06-28 12:43:00,
2013-06-28 04:52:00,57.0,51.0,-100.00,ESE,117,0.0,0.0,81,0.00,,,0.00,0.000000,,2013-06-28 12:52:00,
2013-06-28 05:23:00,57.0,51.0,-100.00,NNE,20,0.0,3.0,81,0.00,,,0.00,0.000000,,2013-06-28 13:23:00,
2013-06-28 05:33:00,57.0,51.0,-100.00,NNE,20,0.0,3.0,81,0.00,,,0.00,0.000000,,2013-06-28 13:33:00,
2013-06-28 05:43:00,57.0,51.0,-100.00,NNE,20,0.0,3.0,81,0.00,,,0.00,0.000000,,2013-06-28 13:43:00,
2013-06-28 05:53:00,57.0,51.0,-100.00,NNE,20,0.0,3.0,81,0.00,,,0.00,0.000000,,2013-06-28 13:53:00,
2013-06-28 06:22:00,55.0,51.0,-100.00,WSW,256,0.0,4.0,85,0.00,,,0.00,3.000000,,2013-06-28 14:22:00,
2013-06-28 06:33:00,55.0,51.0,-100.00,WSW,256,0.0,4.0,85,0.00,,,0.00,3.000000,,2013-06-28 14:33:00,
2013-06-28 06:44:00,55.0,51.0,-100.00,WSW,256,0.0,4.0,85,0.00,,,0.00,3.000000,,2013-06-28 14:44:00,
2013-06-28 06:53:00,55.0,51.0,-100.00,WSW,256,0.0,4.0,85,0.00,,,0.00,3.000000,,2013-06-28 14:53:00,
2013-06-28 07:24:00,54.0,50.0,-100.00,West,279,0.0,5.0,86,0.00,,,0.00,12.000000,,2013-06-28 15:24:00,
2013-06-28 07:33:00,54.0,50.0,-100.00,West,279,0.0,5.0,86,0.00,,,0.00,12.000000,,2013-06-28 15:33:00,
2013-06-28 07:43:00,54.0,50.0,-100.00,West,279,0.0,5.0,86,0.00,,,0.00,12.000000,,2013-06-28 15:43:00,
2013-06-28 07:52:00,54.0,50.0,-100.00,West,279,0.0,5.0,86,0.00,,,0.00,12.000000,,2013-06-28 15:52:00,
2013-06-28 08:11:00,53.0,49.0,-100.00,NW,309,0.0,4.0,86,0.00,,,0.00,25.000000,,2013-06-28 16:11:00,
2013-06-28 08:24:00,53.0,49.0,-100.00,NW,309,0.0,4.0,86,0.00,,,0.00,25.000000,,2013-06-28 16:24:00,
2013-06-28 08:33:00,53.0,49.0,-100.00,NW,309,0.0,4.0,86,0.00,,,0.00,25.000000,,2013-06-28 16:33:00,
2013-06-28 08:44:00,53.0,49.0,-100.00,NW,309,0.0,4.0,86,0.00,,,0.00,25.000000,,2013-06-28 16:44:00,
2013-06-28 08:53:00,53.0,49.0,-100.00,NW,309,0.0,4.0,86,0.00,,,0.00,25.000000,,2013-06-28 16:53:00,
2013-06-28 09:11:00,54.0,50.0,-100.00,SSE,160,0.0,3.0,86,0.00,,,0.00,41.000000,,2013-06-28 17:11:00,
2013-06-28 09:22:00,54.0,50.0,-100.00,SSE,160,0.0,3.0,86,0.00,,,0.00,41.000000,,2013-06-28 17:22:00,
2013-06-28 09:33:00,54.0,50.0,-100.00,SSE,160,0.0,3.0,86,0.00,,,0.00,41.000000,,2013-06-28 17:33:00,
2013-06-28 09:44:00,54.0,50.0,-100.00,SSE,160,0.0,3.0,86,0.00,,,0.00,41.000000,,2013-06-28 17:44:00,
2013-06-28 09:52:00,54.0,50.0,-100.00,SSE,160,0.0,3.0,86,0.00,,,0.00,41.000000,,2013-06-28 17:52:00,
2013-06-28 10:22:00,55.0,52.0,-100.00,SW,228,0.0,1.0,89,0.01,,,0.01,77.000000,,2013-06-28 18:22:00,
2013-06-28 10:33:00,55.0,52.0,-100.00,SW,228,0.0,1.0,89,0.01,,,0.01,77.000000,,2013-06-28 18:33:00,
2013-06-28 10:43:00,55.0,52.0,-100.00,SW,228,0.0,1.0,89,0.01,,,0.01,77.000000,,2013-06-28 18:43:00,
2013-06-28 10:52:00,55.0,52.0,-100.00,SW,228,0.0,1.0,89,0.01,,,0.01,77.000000,,2013-06-28 18:52:00,
2013-06-28 11:22:00,57.0,53.0,-100.00,NNE,16,0.0,3.0,86,0.00,,,0.01,159.000000,,2013-06-28 19:22:00,
2013-06-28 11:32:00,57.0,53.0,-100.00,NNE,16,0.0,3.0,86,0.00,,,0.01,159.000000,,2013-06-28 19:32:00,
2013-06-28 11:43:00,57.0,53.0,-100.00,NNE,16,0.0,3.0,86,0.00,,,0.01,159.000000,,2013-06-28 19:43:00,
2013-06-28 11:53:00,57.0,53.0,-100.00,NNE,16,0.0,3.0,86,0.00,,,0.01,159.000000,,2013-06-28 19:53:00,
2013-06-28 12:22:00,57.0,53.0,-100.00,ENE,66,0.0,3.0,88,0.00,,,0.01,119.000000,,2013-06-28 20:22:00,
2013-06-28 12:33:00,57.0,53.0,-100.00,ENE,66,0.0,3.0,88,0.00,,,0.01,119.000000,,2013-06-28 20:33:00,
2013-06-28 12:43:00,57.0,53.0,-100.00,ENE,66,0.0,3.0,88,0.00,,,0.01,119.000000,,2013-06-28 20:43:00,
2013-06-28 12:52:00,57.0,53.0,-100.00,ENE,66,0.0,3.0,88,0.00,,,0.01,119.000000,,2013-06-28 20:52:00,
2013-06-28 13:11:00,58.0,54.0,-100.00,NNE,21,0.0,2.0,86,0.00,,,0.01,146.000000,,2013-06-28 21:11:00,
2013-06-28 13:23:00,58.0,54.0,-100.00,NNE,21,0.0,2.0,86,0.00,,,0.01,146.000000,,2013-06-28 21:23:00,
2013-06-28 13:34:00,58.0,54.0,-100.00,NNE,21,0.0,2.0,86,0.00,,,0.01,146.000000,,2013-06-28 21:34:00,
2013-06-28 13:43:00,58.0,54.0,-100.00,NNE,21,0.0,2.0,86,0.00,,,0.01,146.000000,,2013-06-28 21:43:00,
2013-06-28 13:53:00,58.0,54.0,-100.00,NNE,21,0.0,2.0,86,0.00,,,0.01,146.000000,,2013-06-28 21:53:00,
2013-06-28 14:11:00,57.0,53.0,-100.00,SW,216,1.0,3.0,86,0.00,,,0.01,139.000000,,2013-06-28 22:11:00,
2013-06-28 14:22:00,57.0,53.0,-100.00,SW,216,1.0,3.0,86,0.00,,,0.01,139.000000,,2013-06-28 22:22:00,
2013-06-28 14:34:00,57.0,53.0,-100.00,SW,216,1.0,3.0,86,0.00,,,0.01,139.000000,,2013-06-28 22:34:00,
2013-06-28 14:43:00,57.0,53.0,-100.00,SW,216,1.0,3.0,86,0.00,,,0.01,139.000000,,2013-06-28 22:43:00,
2013-06-28 14:52:00,57.0,53.0,-100.00,SW,216,1.0,3.0,86,0.00,,,0.01,139.000000,,2013-06-28 22:52:00,
2013-06-28 15:23:00,59.0,54.0,-100.00,WNW,288,0.0,4.0,82,0.00,,,0.01,147.000000,,2013-06-28 23:23:00,
2013-06-28 15:34:00,59.0,54.0,-100.00,WNW,288,0.0,4.0,82,0.00,,,0.01,147.000000,,2013-06-28 23:34:00,
2013-06-28 15:43:00,59.0,54.0,-100.00,WNW,288,0.0,4.0,82,0.00,,,0.01,147.000000,,2013-06-28 23:43:00,
2013-06-28 15:53:00,59.0,54.0,-100.00,WNW,288,0.0,4.0,82,0.00,,,0.01,147.000000,,2013-06-28 23:53:00,
2013-06-28 16:22:00,59.0,54.0,-100.00,South,187,0.0,3.0,82,0.00,,,0.01,106.000000,,2013-06-29 00:22:00,
2013-06-28 16:33:00,59.0,54.0,-100.00,South,187,0.0,3.0,82,0.00,,,0.01,106.000000,,2013-06-29 00:33:00,
2013-06-28 16:42:00,59.0,54.0,-100.00,South,187,0.0,3.0,82,0.00,,,0.01,106.000000,,2013-06-29 00:42:00,
2013-06-28 16:52:00,59.0,54.0,-100.00,South,187,0.0,3.0,82,0.00,,,0.01,106.000000,,2013-06-29 00:52:00,
2013-06-28 17:11:00,57.0,53.0,-100.00,SSW,205,0.0,3.0,87,0.00,,,0.01,66.000000,,2013-06-29 01:11:00,
2013-06-28 17:22:00,57.0,53.0,-100.00,SSW,205,0.0,3.0,87,0.00,,,0.01,66.000000,,2013-06-29 01:22:00,
2013-06-28 17:31:00,57.0,53.0,-100.00,SSW,205,0.0,3.0,87,0.00,,,0.01,66.000000,,2013-06-29 01:31:00,
2013-06-28 17:42:00,57.0,53.0,-100.00,SSW,205,0.0,3.0,87,0.00,,,0.01,66.000000,,2013-06-29 01:42:00,
2013-06-28 17:51:00,57.0,53.0,-100.00,SSW,205,0.0,3.0,87,0.00,,,0.01,66.000000,,2013-06-29 01:51:00,
2013-06-28 18:10:00,58.0,54.0,-100.00,West,271,0.0,3.0,88,0.00,,,0.01,66.000000,,2013-06-29 02:10:00,
2013-06-28 18:21:00,58.0,54.0,-100.00,West,271,0.0,3.0,88,0.00,,,0.01,66.000000,,2013-06-29 02:21:00,
2013-06-28 18:31:00,58.0,54.0,-100.00,West,271,0.0,3.0,88,0.00,,,0.01,66.000000,,2013-06-29 02:31:00,
2013-06-28 18:41:00,58.0,54.0,-100.00,West,271,0.0,3.0,88,0.00,,,0.01,66.000000,,2013-06-29 02:41:00,
2013-06-28 18:51:00,58.0,54.0,-100.00,West,271,0.0,3.0,88,0.00,,,0.01,66.000000,,2013-06-29 02:51:00,
2013-06-28 19:11:00,57.0,54.0,-100.00,WSW,238,0.0,4.0,89,0.00,,,0.01,57.000000,,2013-06-29 03:11:00,
2013-06-28 19:21:00,57.0,54.0,-100.00,WSW,238,0.0,4.0,89,0.00,,,0.01,57.000000,,2013-06-29 03:21:00,
2013-06-28 19:32:00,57.0,54.0,-100.00,WSW,238,0.0,4.0,89,0.00,,,0.01,57.000000,,2013-06-29 03:32:00,
2013-06-28 19:41:00,57.0,54.0,-100.00,WSW,238,0.0,4.0,89,0.00,,,0.01,57.000000,,2013-06-29 03:41:00,
2013-06-28 19:51:00,57.0,54.0,-100.00,WSW,238,0.0,4.0,89,0.00,,,0.01,57.000000,,2013-06-29 03:51:00,
2013-06-28 20:11:00,57.0,54.0,-100.00,SW,227,0.0,3.0,89,0.00,,,0.01,99.000000,,2013-06-29 04:11:00,
2013-06-28 20:22:00,57.0,54.0,-100.00,SW,227,0.0,3.0,89,0.00,,,0.01,99.000000,,2013-06-29 04:22:00,
2013-06-28 20:31:00,57.0,54.0,-100.00,SW,227,0.0,3.0,89,0.00,,,0.01,99.000000,,2013-06-29 04:31:00,
2013-06-28 20:41:00,57.0,54.0,-100.00,SW,227,0.0,3.0,89,0.00,,,0.01,99.000000,,2013-06-29 04:41:00,
2013-06-28 20:51:00,57.0,54.0,-100.00,SW,227,0.0,3.0,89,0.00,,,0.01,99.000000,,2013-06-29 04:51:00,
2013-06-28 21:10:00,56.0,53.0,-100.00,West,271,0.0,3.0,89,0.00,,,0.01,25.000000,,2013-06-29 05:10:00,
2013-06-28 21:21:00,56.0,53.0,-100.00,West,271,0.0,3.0,89,0.00,,,0.01,25.000000,,2013-06-29 05:21:00,
2013-06-28 21:31:00,56.0,53.0,-100.00,West,271,0.0,3.0,89,0.00,,,0.01,25.000000,,2013-06-29 05:31:00,
2013-06-28 21:41:00,56.0,53.0,-100.00,West,271,0.0,3.0,89,0.00,,,0.01,25.000000,,2013-06-29 05:41:00,
2013-06-28 21:51:00,56.0,53.0,-100.00,West,271,0.0,3.0,89,0.00,,,0.01,25.000000,,2013-06-29 05:51:00,
2013-06-28 22:12:00,56.0,52.0,-100.00,WSW,244,0.0,2.0,88,0.00,,,0.01,33.000000,,2013-06-29 06:12:00,
2013-06-28 22:22:00,56.0,52.0,-100.00,WSW,244,0.0,2.0,88,0.00,,,0.01,33.000000,,2013-06-29 06:22:00,
2013-06-28 22:33:00,56.0,52.0,-100.00,WSW,244,0.0,2.0,88,0.00,,,0.01,33.000000,,2013-06-29 06:33:00,
2013-06-28 22:43:00,56.0,52.0,-100.00,WSW,244,0.0,2.0,88,0.00,,,0.01,33.000000,,2013-06-29 06:43:00,
2013-06-28 22:53:00,56.0,52.0,-100.00,WSW,244,0.0,2.0,88,0.00,,,0.01,33.000000,,2013-06-29 06:53:00,
2013-06-28 23:12:00,56.0,53.0,-100.00,WNW,295,0.0,2.0,91,0.00,,,0.01,9.000000,,2013-06-29 07:12:00,
2013-06-28 23:22:00,56.0,53.0,-100.00,WNW,295,0.0,2.0,91,0.00,,,0.01,9.000000,,2013-06-29 07:22:00,
2013-06-28 23:33:00,56.0,53.0,-100.00,WNW,295,0.0,2.0,91,0.00,,,0.01,9.000000,,2013-06-29 07:33:00,
2013-06-28 23:43:00,56.0,53.0,-100.00,WNW,295,0.0,2.0,91,0.00,,,0.01,9.000000,,2013-06-29 07:43:00,
2013-06-28 23:53:00,56.0,53.0,-100.00,WNW,295,0.0,2.0,91,0.00,,,0.01,9.000000,,2013-06-29 07:53:00,